Change the Weather History Date:

Wednesday, July 10, 2013

  Actual Average (KFDY) Record (KFDY)
Temperature  
Mean Temperature 78 °F -  
Max Temperature 88 °F 82 °F 96 °F (1989)
Min Temperature 68 °F 65 °F 47 °F (1963)
Cooling Degree Days 12    
Growing Degree Days 28 (Base 50)    
Moisture  
Dew Point 69 °F    
Average Humidity 78    
Maximum Humidity 100    
Minimum Humidity 61    
Precipitation  
Precipitation 0.03 in - - ()
Sea Level Pressure  
Sea Level Pressure 29.90 in    
Wind  
Wind Speed 11 mph (WSW)    
Max Wind Speed 23 mph    
Max Gust Speed 53 mph    
Visibility 9 miles    
Events Rain , Thunderstorm    
Averages and records for this station are not official NWS values.
T = Trace of Precipitation, MM = Missing Value Source: NWS Daily Summary

Daily Weather History Graph

Daily Weather History Graph

Search for Another Location

Airport or City:

Trip Planner

Search our weather history database for the weather conditions in past years. The results will help you decide how hot, cold, wet, or windy it might be!

Date:

Astronomy

Jul. 10, 2013 Rise Set
Actual Time 6:14 AM EDT 9:08 PM EDT
Civil Twilight 5:41 AM EDT 9:41 PM EDT
Nautical Twilight 5:00 AM EDT 10:22 PM EDT
Astronomical Twilight 4:12 AM EDT 11:10 PM EDT
Moon 8:35 AM EDT (7/10) 10:16 PM EDT (7/10)
Length of Visible Light 15h 59m
Length of Day
14h 54m
Waxing Crescent, 5% of the Moon is Illuminated
Jul 10
Waxing Crescent
Jul 15
First Quarter
Jul 22
Full
Jul 29
Last Quarter
Aug 6
New

Hourly Weather History & Observations

Time (EDT) Temp. Heat Index Dew Point Humidity Pressure Visibility Wind Dir Wind Speed Gust Speed Precip Events Conditions
12:53 AM 75.9 °F - 70.0 °F 82% 29.94 in 10.0 mi SSW 10.4 mph - N/A   Partly Cloudy
1:53 AM 77.0 °F - 71.1 °F 82% 29.93 in 10.0 mi SSW 10.4 mph - N/A   Clear
2:53 AM 78.1 °F - 71.1 °F 79% 29.91 in 10.0 mi SSW 10.4 mph - N/A   Mostly Cloudy
3:53 AM 78.1 °F - 72.0 °F 81% 29.91 in 10.0 mi SW 10.4 mph - N/A   Mostly Cloudy
4:53 AM 77.0 °F - 71.1 °F 82% 29.90 in 9.0 mi SW 10.4 mph - N/A   Clear
5:53 AM 77.0 °F - 71.1 °F 82% 29.90 in 8.0 mi SW 10.4 mph - N/A   Clear
6:53 AM 77.0 °F - 71.1 °F 82% 29.89 in 6.0 mi SW 9.2 mph - N/A   Haze
7:53 AM 79.0 °F - 72.0 °F 79% 29.90 in 8.0 mi SW 10.4 mph - N/A   Mostly Cloudy
8:53 AM 81.0 °F 85.8 °F 73.0 °F 77% 29.89 in 9.0 mi WSW 11.5 mph - N/A   Clear
9:53 AM 82.9 °F 89.4 °F 73.9 °F 74% 29.88 in 10.0 mi SW 11.5 mph - N/A   Partly Cloudy
10:53 AM 84.9 °F 92.1 °F 73.9 °F 69% 29.88 in 10.0 mi WSW 12.7 mph - N/A   Clear
11:53 AM 86.0 °F 93.8 °F 73.9 °F 67% 29.86 in 10.0 mi WSW 12.7 mph - N/A   Partly Cloudy
12:53 PM 87.1 °F 96.3 °F 75.0 °F 67% 29.86 in 10.0 mi WSW 15.0 mph - N/A   Scattered Clouds
1:53 PM 86.0 °F 95.1 °F 75.0 °F 70% 29.81 in 10.0 mi SSW 16.1 mph 23.0 mph N/A   Partly Cloudy
2:30 PM 84.2 °F 90.9 °F 73.4 °F 70% 29.87 in 10.0 mi WSW 16.1 mph - N/A Thunderstorm Partly Cloudy
2:57 PM 69.8 °F - 69.8 °F 100% 29.96 in - North - - N/A Thunderstorm Thunderstorm
3:08 PM 68.0 °F - 64.4 °F 88% 29.95 in 0.8 mi West 23.0 mph 52.9 mph N/A Rain , Thunderstorm Heavy Thunderstorms and Rain
3:11 PM 68.0 °F - 64.4 °F 88% 29.94 in 2.5 mi WNW 18.4 mph 35.7 mph N/A Rain , Thunderstorm Thunderstorms and Rain
3:18 PM 68.0 °F - 64.4 °F 88% 29.93 in 10.0 mi WNW 18.4 mph 29.9 mph N/A Rain , Thunderstorm Light Rain
3:53 PM 69.1 °F - 64.9 °F 87% 29.91 in 6.0 mi West 12.7 mph 23.0 mph N/A Rain Rain
4:53 PM 72.0 °F - 68.0 °F 87% 29.83 in 10.0 mi NW 13.8 mph - 0.03 in   Partly Cloudy
5:53 PM 75.9 °F - 71.1 °F 85% 29.83 in 10.0 mi NW 5.8 mph 17.3 mph N/A   Clear
6:53 PM 80.1 °F 82.3 °F 66.9 °F 64% 29.82 in 10.0 mi West 9.2 mph - N/A   Clear
7:53 PM 79.0 °F - 68.0 °F 69% 29.86 in 10.0 mi SSW 5.8 mph - N/A   Scattered Clouds
8:42 PM 77.0 °F - 68.0 °F 74% 29.91 in 10.0 mi SSW 5.8 mph - N/A   Overcast
8:53 PM 77.0 °F - 68.0 °F 74% 29.90 in 10.0 mi SW 8.1 mph - N/A   Overcast
9:31 PM 75.2 °F - 68.0 °F 78% 29.93 in 10.0 mi Calm Calm - N/A   Overcast
9:53 PM 75.0 °F - 64.9 °F 71% 29.91 in 10.0 mi NNW 4.6 mph - N/A   Overcast
10:53 PM 73.9 °F - 64.0 °F 71% 29.93 in 10.0 mi WNW 5.8 mph - N/A   Overcast
11:53 PM 73.0 °F - 59.0 °F 61% 29.95 in 10.0 mi NW 5.8 mph - N/A   Overcast